Weather History for Bridgeport, CT

Change the Weather History Date:

Friday, February 8, 2013

  Actual Average Record
Temperature  
Mean Temperature 29 °F 31 °F  
Max Temperature 33 °F 38 °F 57 °F (1965)
Min Temperature 24 °F 24 °F -5 °F (1963)
Degree Days  
Heating Degree Days 36 34  
Month to date heating degree days 293 273  
Since 1 July heating degree days 2979 3249  
Cooling Degree Days 0 0  
Month to date cooling degree days 0 0  
Year to date cooling degree days 0 0  
Moisture  
Dew Point 28 °F    
Average Humidity 82    
Maximum Humidity 100    
Minimum Humidity 64    
Precipitation  
Precipitation 1.73 in 0.08 in 1.73 in (2013)
Month to date precipitation 1.77 0.72  
Year to date precipitation 3.77 3.82  
Snow  
Snow 0.00 in 0.30 in 18.50 in (2013)
Month to date snowfall 0.3 2.2  
Since 1 July snowfall 21.2 15.7  
Snow Depth 0.00 in    
Sea Level Pressure  
Sea Level Pressure 29.92 in    
Wind  
Wind Speed 18 mph (NE)    
Max Wind Speed 30 mph    
Max Gust Speed 44 mph    
Visibility 3 miles    
Events Fog , Snow    
T = Trace of Precipitation, MM = Missing Value Source: NWS Daily Summary

Daily Weather History Graph

Daily Weather History Graph

Search for Another Location

Airport:

Trip Planner

Search our weather history database for the weather conditions in past years. The results will help you decide how hot, cold, wet, or windy it might be!

Date:

Astronomy

Feb. 08, 2013 Rise Set
Actual Time 6:55 AM EST 5:18 PM EST
Civil Twilight 6:26 AM EST 5:47 PM EST
Nautical Twilight 5:54 AM EST 6:19 PM EST
Astronomical Twilight 5:22 AM EST 6:51 PM EST
Moon 5:22 AM EST (2/8) 3:48 PM EST (2/8)
Length of Visible Light 11h 20m
Length of Day
10h 22m
Waning Crescent, 3% of the Moon is Illuminated
Feb 8
Waning Crescent
Feb 10
New
Feb 17
First Quarter
Feb 25
Full
Mar 4
Last Quarter

Hourly Weather History & Observations

Time (EST) Temp. Windchill Dew Point Humidity Pressure Visibility Wind Dir Wind Speed Gust Speed Precip Events Conditions
12:52 AM 32.0 °F 20.8 °F 23.0 °F 69% 30.36 in 10.0 mi East 17.3 mph - N/A   Overcast
1:52 AM 30.2 °F 18.1 °F 21.2 °F 69% 30.35 in 10.0 mi ENE 18.4 mph - N/A   Overcast
2:52 AM 30.9 °F 20.7 °F 21.0 °F 67% 30.32 in 10.0 mi ENE 13.8 mph - N/A   Overcast
3:52 AM 30.0 °F 19.1 °F 21.9 °F 72% 30.28 in 10.0 mi ENE 15.0 mph - N/A   Overcast
4:03 AM 30.2 °F 20.2 °F 21.2 °F 69% 30.27 in 10.0 mi ENE 12.7 mph 21.9 mph N/A   Overcast
4:52 AM 30.9 °F 20.2 °F 24.1 °F 76% 30.25 in 10.0 mi ENE 15.0 mph - N/A   Overcast
5:32 AM 30.2 °F 20.2 °F 24.8 °F 80% 30.23 in 10.0 mi NE 12.7 mph - N/A   Overcast
5:52 AM 30.9 °F 21.2 °F 24.1 °F 76% 30.22 in 10.0 mi NE 12.7 mph - N/A   Overcast
6:03 AM 30.2 °F 20.8 °F 24.8 °F 80% 30.22 in 10.0 mi NE 11.5 mph - N/A   Overcast
6:52 AM 30.9 °F 19.8 °F 24.1 °F 76% 30.19 in 10.0 mi NE 16.1 mph 21.9 mph N/A   Overcast
7:28 AM 32.0 °F 21.2 °F 28.4 °F 87% 30.19 in 1.8 mi ENE 16.1 mph - 0.00 in Snow Light Snow
7:37 AM 32.0 °F 21.6 °F 28.4 °F 87% 30.18 in 0.5 mi ENE 15.0 mph - 0.01 in Fog , Snow Snow
7:42 AM 32.0 °F 21.2 °F 28.4 °F 87% 30.18 in 0.5 mi ENE 16.1 mph 23.0 mph 0.01 in Fog , Snow Snow
7:52 AM 30.9 °F 20.7 °F 28.9 °F 92% 30.18 in 0.2 mi ENE 13.8 mph - 0.03 in Fog , Snow Heavy Snow
8:20 AM 30.2 °F 20.8 °F 30.2 °F 100% 30.17 in 0.8 mi ENE 11.5 mph - 0.04 in Snow Light Snow
8:52 AM 30.9 °F 20.7 °F 30.0 °F 96% 30.15 in 0.8 mi NE 13.8 mph - 0.07 in Snow Light Snow
9:21 AM 32.0 °F 22.1 °F 30.2 °F 93% 30.14 in 0.5 mi NE 13.8 mph - 0.04 in Fog , Snow Snow
9:52 AM 32.0 °F 21.2 °F 30.9 °F 96% 30.11 in 0.5 mi NE 16.1 mph - 0.08 in Fog , Snow Snow
10:05 AM 32.0 °F 21.6 °F 30.2 °F 93% 30.10 in 0.8 mi NE 15.0 mph - 0.01 in Snow Light Snow
10:47 AM 32.0 °F 20.8 °F 30.2 °F 93% 30.06 in 0.5 mi ENE 17.3 mph 25.3 mph 0.05 in Fog , Snow Snow
10:52 AM 32.0 °F 20.8 °F 30.9 °F 96% 30.06 in 0.5 mi NE 17.3 mph 24.2 mph 0.06 in Fog , Snow Snow
11:03 AM 32.0 °F 21.2 °F 30.2 °F 93% 30.05 in 0.8 mi NE 16.1 mph 24.2 mph 0.01 in Snow Light Snow
11:08 AM 32.0 °F 21.6 °F 30.2 °F 93% 30.04 in 1.0 mi NE 15.0 mph - 0.01 in Snow Light Snow
11:15 AM 32.0 °F 20.8 °F 30.2 °F 93% 30.03 in 1.0 mi NE 17.3 mph - 0.02 in Snow Light Snow
11:52 AM 32.0 °F 21.2 °F 30.9 °F 96% 30.00 in 1.0 mi NE 16.1 mph - 0.04 in Snow Light Snow
11:58 AM 32.0 °F 21.2 °F 30.2 °F 93% 29.99 in 0.8 mi NE 16.1 mph - 0.01 in Snow Light Snow
12:27 PM 32.0 °F 20.8 °F 30.2 °F 93% 29.96 in 0.5 mi NE 17.3 mph 23.0 mph 0.04 in Fog , Snow Snow
12:39 PM 32.0 °F 21.2 °F 30.2 °F 93% 29.95 in 0.5 mi NE 16.1 mph 25.3 mph 0.05 in Fog , Snow Snow
12:52 PM 32.0 °F 20.5 °F 30.0 °F 92% 29.94 in 0.5 mi NE 18.4 mph - 0.07 in Fog , Snow Snow
1:32 PM 32.0 °F 20.1 °F 30.2 °F 93% 29.88 in 0.5 mi NE 19.6 mph 25.3 mph 0.04 in Fog , Snow Snow
1:52 PM 32.0 °F 20.5 °F 30.0 °F 92% 29.87 in 0.5 mi NE 18.4 mph 26.5 mph 0.06 in Fog , Snow Snow
2:52 PM 32.0 °F 20.1 °F 30.9 °F 96% 29.80 in 0.5 mi NE 19.6 mph 28.8 mph 0.09 in Fog , Snow Snow
3:27 PM 32.0 °F 20.5 °F 30.2 °F 93% 29.76 in 0.5 mi NE 18.4 mph 32.2 mph 0.04 in Fog , Snow Snow
3:52 PM 33.1 °F 20.9 °F 30.9 °F 92% 29.75 in 0.5 mi NE 21.9 mph 31.1 mph 0.07 in Fog , Snow Snow
4:52 PM 32.0 °F 20.1 °F 32.0 °F 100% 29.71 in 0.2 mi NNE 19.6 mph 28.8 mph 0.12 in Fog , Snow Heavy Snow
5:18 PM 32.0 °F 20.8 °F 30.2 °F 93% 29.70 in 0.5 mi NNE 17.3 mph 26.5 mph 0.05 in Fog , Snow Snow
5:52 PM 30.9 °F 18.7 °F 30.0 °F 96% 29.69 in 0.5 mi NNE 19.6 mph 28.8 mph 0.16 in Fog , Snow Snow
6:12 PM 30.2 °F 17.1 °F 28.4 °F 93% 29.67 in 0.5 mi NNE 21.9 mph 29.9 mph 0.04 in Fog , Snow Snow
6:43 PM 30.2 °F 16.5 °F 28.4 °F 93% 29.65 in 0.8 mi NNE 24.2 mph 31.1 mph 0.10 in Snow Light Snow
6:52 PM 30.0 °F 16.3 °F 28.9 °F 96% 29.63 in 0.5 mi North 24.2 mph 33.4 mph 0.11 in Fog , Snow Snow
7:17 PM 28.4 °F 15.4 °F 28.4 °F 100% 29.62 in 0.8 mi NNE 19.6 mph 32.2 mph 0.03 in Snow Light Snow
7:26 PM 28.4 °F 15.4 °F 28.4 °F 100% 29.62 in 0.5 mi NNE 19.6 mph 31.1 mph 0.05 in Fog , Snow Snow
7:52 PM 28.0 °F 14.6 °F 28.0 °F 100% 29.60 in 0.5 mi NNE 20.7 mph 27.6 mph 0.08 in Fog , Snow Snow
8:11 PM 28.4 °F 14.7 °F 28.4 °F 100% 29.58 in 0.8 mi North 21.9 mph 35.7 mph 0.00 in Snow Light Snow
8:18 PM 28.4 °F 15.1 °F 28.4 °F 100% 29.58 in 1.2 mi North 20.7 mph 33.4 mph 0.00 in   Overcast
8:28 PM 28.4 °F 16.6 °F 28.4 °F 100% 29.58 in 2.0 mi NNE 16.1 mph 28.8 mph 0.00 in Snow Light Snow
8:52 PM 28.0 °F 14.6 °F 28.0 °F 100% 29.57 in 1.2 mi North 20.7 mph 26.5 mph 0.02 in Snow Light Snow
9:49 PM 26.6 °F 14.3 °F 26.6 °F 100% 29.59 in 0.8 mi North 16.1 mph 29.9 mph 0.00 in   Overcast
9:52 PM 26.1 °F 13.1 °F 26.1 °F 100% 29.60 in 0.8 mi North 17.3 mph 27.6 mph 0.00 in   Overcast
9:59 PM 26.6 °F 12.4 °F 24.8 °F 93% 29.60 in 0.8 mi North 21.9 mph 26.5 mph N/A   Mist
10:10 PM 26.6 °F 14.3 °F 24.8 °F 93% 29.61 in 0.5 mi North 16.1 mph 26.5 mph N/A Fog Light Freezing Fog
10:21 PM 24.8 °F 11.5 °F 24.8 °F 100% 29.61 in 0.2 mi North 17.3 mph 32.2 mph N/A Fog Light Freezing Fog
10:35 PM 24.8 °F 9.3 °F 24.8 °F 100% 29.62 in 0.2 mi North 24.2 mph 35.7 mph 0.01 in Fog Light Freezing Fog
10:52 PM 25.0 °F 9.9 °F 24.1 °F 96% 29.64 in 0.2 mi North 23.0 mph 31.1 mph 0.06 in Fog Light Freezing Fog
11:52 PM 25.0 °F 9.2 °F 24.1 °F 96% 29.68 in 0.2 mi NNW 25.3 mph 39.1 mph 0.54 in Fog Light Freezing Fog